Weather History for KPPQ - January, 2013

Change the Weather History Date:

Friday, January 18, 2013

  Actual Average (KUIN) Record (KUIN)
Temperature  
Mean Temperature 40 °F 26 °F  
Max Temperature 52 °F 34 °F 64 °F (1951)
Min Temperature 27 °F 18 °F -16 °F (1930)
Degree Days  
Heating Degree Days 26 39  
Month to date heating degree days 698  
Since 1 July heating degree days 2889  
Cooling Degree Days 0 0  
Month to date cooling degree days 0  
Year to date cooling degree days 0  
Moisture  
Dew Point 25 °F    
Average Humidity 58    
Maximum Humidity 78    
Minimum Humidity 39    
Precipitation  
Precipitation 0.00 in 0.05 in 1.10 in (1996)
Month to date precipitation 0.91  
Year to date precipitation 0.91  
Sea Level Pressure  
Sea Level Pressure 30.26 in    
Wind  
Wind Speed 9 mph (SSW)    
Max Wind Speed 20 mph    
Max Gust Speed 28 mph    
Visibility 10 miles    
Events      
T = Trace of Precipitation, MM = Missing Value Source: NWS Daily Summary

Daily Weather History Graph

Daily Weather History Graph

Search for Another Location

Airport or City:

Trip Planner

Search our weather history database for the weather conditions in past years. The results will help you decide how hot, cold, wet, or windy it might be!

Date:

Astronomy

Jan. 18, 2013 Rise Set
Actual Time 7:20 AM CST 5:07 PM CST
Civil Twilight 6:51 AM CST 5:36 PM CST
Nautical Twilight 6:18 AM CST 6:09 PM CST
Astronomical Twilight 5:46 AM CST 6:41 PM CST
Moon 11:00 AM CST (1/18) No Moon Set
Length of Visible Light 10h 45m
Length of Day
9h 46m
Waxing Crescent, 47% of the Moon is Illuminated
Jan 18
Waxing Crescent
Jan 18
First Quarter
Jan 26
Full
Feb 3
Last Quarter
Feb 10
New

Hourly Weather History & Observations

Time (CST) Temp. Windchill Dew Point Humidity Pressure Visibility Wind Dir Wind Speed Gust Speed Precip Events Conditions
12:15 AM 27.1 °F 21.8 °F 21.0 °F 78% 30.47 in 10.0 mi SSW 4.6 mph - N/A   Clear
12:35 AM 28.6 °F 23.5 °F 21.9 °F 76% 30.47 in 10.0 mi SSW 4.6 mph - N/A   Clear
12:55 AM 29.1 °F 25.4 °F 21.7 °F 74% 30.47 in 10.0 mi SSW 3.5 mph - N/A   Clear
1:15 AM 28.4 °F 23.3 °F 21.2 °F 74% 30.47 in 10.0 mi South 4.6 mph - N/A   Clear
1:35 AM 28.6 °F 22.4 °F 21.2 °F 74% 30.47 in 10.0 mi South 5.8 mph - N/A   Clear
1:55 AM 28.6 °F 22.4 °F 21.2 °F 74% 30.47 in 10.0 mi South 5.8 mph - N/A   Clear
2:15 AM 28.4 °F 23.3 °F 21.2 °F 74% 30.47 in 10.0 mi South 4.6 mph - N/A   Clear
2:35 AM 28.2 °F 21.0 °F 21.2 °F 75% 30.46 in 10.0 mi South 6.9 mph - N/A   Clear
2:55 AM 28.4 °F 22.2 °F 21.2 °F 74% 30.46 in 10.0 mi South 5.8 mph - N/A   Clear
3:15 AM 28.2 °F 22.0 °F 21.2 °F 75% 30.45 in 10.0 mi SSW 5.8 mph - N/A   Clear
3:35 AM 28.4 °F 20.4 °F 21.2 °F 74% 30.45 in 10.0 mi SSW 8.1 mph - N/A   Clear
3:55 AM 28.4 °F 20.4 °F 21.2 °F 74% 30.45 in 10.0 mi SSW 8.1 mph - N/A   Clear
4:15 AM 28.9 °F 19.8 °F 21.2 °F 73% 30.44 in 10.0 mi SSW 10.4 mph - N/A   Clear
4:35 AM 28.0 °F 20.0 °F 21.2 °F 76% 30.43 in 10.0 mi South 8.1 mph - N/A   Clear
4:55 AM 27.5 °F 20.2 °F 21.2 °F 77% 30.42 in 10.0 mi South 6.9 mph - N/A   Clear
5:15 AM 27.7 °F 20.4 °F 21.2 °F 77% 30.42 in 10.0 mi South 6.9 mph - N/A   Clear
5:35 AM 28.2 °F 21.0 °F 21.2 °F 75% 30.41 in 10.0 mi South 6.9 mph - N/A   Clear
5:55 AM 27.7 °F 20.4 °F 21.2 °F 77% 30.41 in 10.0 mi South 6.9 mph - N/A   Clear
6:15 AM 28.4 °F 22.2 °F 21.2 °F 74% 30.41 in 10.0 mi South 5.8 mph - N/A   Clear
6:35 AM 27.9 °F 21.5 °F 21.6 °F 77% 30.40 in 10.0 mi South 5.8 mph - N/A   Clear
6:55 AM 28.0 °F 19.3 °F 21.7 °F 77% 30.39 in 10.0 mi South 9.2 mph - N/A   Clear
7:15 AM 28.2 °F 21.0 °F 21.7 °F 77% 30.38 in 10.0 mi South 6.9 mph - N/A   Clear
7:35 AM 29.1 °F 21.3 °F 22.1 °F 75% 30.39 in 10.0 mi SSW 8.1 mph - N/A   Clear
7:55 AM 30.0 °F 23.2 °F 22.5 °F 73% 30.39 in 10.0 mi South 6.9 mph - N/A   Clear
8:15 AM 31.3 °F 22.1 °F 23.0 °F 71% 30.38 in 10.0 mi South 11.5 mph - N/A   Clear
8:35 AM 32.0 °F 23.6 °F 23.4 °F 70% 30.38 in 10.0 mi South 10.4 mph - N/A   Clear
8:55 AM 33.1 °F 24.9 °F 24.4 °F 71% 30.38 in 10.0 mi South 10.4 mph - N/A   Clear
9:15 AM 34.2 °F 27.5 °F 24.8 °F 69% 30.38 in 10.0 mi South 8.1 mph - N/A   Clear
9:35 AM 35.8 °F 28.8 °F 25.5 °F 66% 30.38 in 10.0 mi South 9.2 mph - N/A   Clear
9:55 AM 37.0 °F 29.8 °F 25.9 °F 64% 30.37 in 10.0 mi South 10.4 mph 16.1 mph N/A   Clear
10:15 AM 38.5 °F 30.7 °F 26.4 °F 62% 30.36 in 10.0 mi South 12.7 mph 19.6 mph N/A   Clear
10:35 AM 40.1 °F 31.3 °F 27.5 °F 61% 30.35 in 10.0 mi SSW 17.3 mph 24.2 mph N/A   Clear
10:55 AM 41.2 °F 33.0 °F 27.7 °F 59% 30.33 in 10.0 mi SSW 16.1 mph 24.2 mph N/A   Clear
11:15 AM 42.8 °F 35.4 °F 28.4 °F 57% 30.31 in 10.0 mi SSW 15.0 mph 24.2 mph N/A   Clear
11:35 AM 43.7 °F 35.7 °F 28.9 °F 56% 30.29 in 10.0 mi SSW 18.4 mph 25.3 mph N/A   Clear
11:55 AM 45.0 °F 38.2 °F 30.0 °F 56% 30.26 in 10.0 mi South 15.0 mph 23.0 mph N/A   Clear
12:15 PM 45.7 °F 38.3 °F 29.8 °F 54% 30.25 in 10.0 mi South 18.4 mph 27.6 mph N/A   Clear
12:35 PM 46.8 °F - 30.9 °F 54% 30.23 in 10.0 mi South 15.0 mph 20.7 mph N/A   Clear
12:55 PM 47.8 °F - 30.4 °F 51% 30.21 in 10.0 mi SSW 16.1 mph 24.2 mph N/A   Clear
1:15 PM 48.4 °F - 29.3 °F 48% 30.20 in 10.0 mi SSW 17.3 mph 26.5 mph N/A   Clear
1:35 PM 49.5 °F - 29.3 °F 46% 30.18 in 10.0 mi SSW 15.0 mph - N/A   Clear
1:55 PM 50.7 °F - 29.1 °F 43% 30.17 in 10.0 mi SSW 19.6 mph 25.3 mph N/A   Clear
2:15 PM 51.6 °F - 29.8 °F 43% 30.16 in 10.0 mi South 15.0 mph - N/A   Clear
2:35 PM 51.8 °F - 28.9 °F 41% 30.15 in 10.0 mi South 13.8 mph 24.2 mph N/A   Clear
2:55 PM 52.0 °F - 28.6 °F 41% 30.14 in 10.0 mi South 12.7 mph 20.7 mph N/A   Clear
3:15 PM 52.3 °F - 29.1 °F 41% 30.13 in 10.0 mi South 12.7 mph 18.4 mph N/A   Clear
3:35 PM 52.2 °F - 28.6 °F 40% 30.12 in 10.0 mi South 15.0 mph - N/A   Clear
3:55 PM 52.2 °F - 28.0 °F 39% 30.11 in 10.0 mi South 11.5 mph - N/A   Clear
4:15 PM 51.4 °F - 28.0 °F 40% 30.11 in 10.0 mi South 11.5 mph - N/A   Clear
4:35 PM 50.9 °F - 27.5 °F 40% 30.10 in 10.0 mi South 11.5 mph 21.9 mph N/A   Clear
4:55 PM 49.5 °F - 27.3 °F 42% 30.10 in 10.0 mi South 10.4 mph - N/A   Clear
5:15 PM 48.2 °F - 27.1 °F 44% 30.10 in 10.0 mi South 9.2 mph - N/A   Clear
5:35 PM 47.1 °F - 26.6 °F 45% 30.09 in 10.0 mi South 10.4 mph - N/A   Clear
5:55 PM 46.8 °F - 26.4 °F 45% 30.09 in 10.0 mi South 10.4 mph - N/A   Clear
6:15 PM 46.9 °F - 26.6 °F 45% 30.08 in 10.0 mi South 12.7 mph 17.3 mph N/A   Clear
6:35 PM 47.5 °F - 26.1 °F 43% 30.08 in 10.0 mi South 11.5 mph - N/A   Clear
6:55 PM 47.8 °F - 26.1 °F 43% 30.07 in 10.0 mi South 15.0 mph 20.7 mph N/A   Clear
7:15 PM 48.4 °F - 25.7 °F 41% 30.07 in 10.0 mi South 15.0 mph 21.9 mph N/A   Clear
7:35 PM 48.4 °F - 25.5 °F 41% 30.07 in 10.0 mi South 16.1 mph 23.0 mph N/A   Clear
7:55 PM 48.2 °F - 25.9 °F 42% 30.07 in 10.0 mi SSW 12.7 mph 21.9 mph N/A   Clear
8:15 PM 47.1 °F - 26.6 °F 45% 30.08 in 10.0 mi SSW 12.7 mph - N/A   Clear
8:35 PM 47.5 °F - 27.0 °F 45% 30.08 in 10.0 mi SSW 16.1 mph 25.3 mph N/A   Clear
8:55 PM 47.1 °F - 27.3 °F 46% 30.08 in 10.0 mi SSW 13.8 mph - N/A   Clear
9:15 PM 46.6 °F - 27.7 °F 48% 30.08 in 10.0 mi SSW 13.8 mph 19.6 mph N/A   Clear
9:35 PM 46.2 °F 39.5 °F 27.7 °F 48% 30.08 in 10.0 mi SSW 16.1 mph 20.7 mph N/A   Clear
9:55 PM 46.2 °F 39.8 °F 27.5 °F 48% 30.08 in 10.0 mi SSW 15.0 mph 19.6 mph N/A   Clear
10:15 PM 46.2 °F 39.5 °F 27.5 °F 48% 30.07 in 10.0 mi SSW 16.1 mph 21.9 mph N/A   Clear
10:35 PM 45.5 °F 39.6 °F 27.7 °F 50% 30.07 in 10.0 mi SSW 12.7 mph - N/A   Clear
10:55 PM 45.5 °F 38.9 °F 27.5 °F 49% 30.07 in 10.0 mi SSW 15.0 mph - N/A   Clear
11:15 PM 45.5 °F 38.6 °F 27.3 °F 49% 30.07 in 10.0 mi SSW 16.1 mph 20.7 mph N/A   Clear
11:35 PM 45.1 °F 38.1 °F 27.1 °F 49% 30.07 in 10.0 mi SSW 16.1 mph 20.7 mph N/A   Clear
11:55 PM 45.0 °F 37.6 °F 27.0 °F 49% 30.06 in 10.0 mi SSW 17.3 mph 24.2 mph N/A   Clear